Time,TemperatureF,DewpointF,PressureIn,WindDirection,WindDirectionDegrees,WindSpeedMPH,WindSpeedGustMPH,Humidity,HourlyPrecipIn,Conditions,Clouds,dailyrainin,SoftwareType,DateUTC
2013-05-18 00:02:00,56.0,22.0,30.00,North,-999,-999.0,-999.0,26,-99.99,,,-99.99,,2013-05-18 06:02:00,
2013-05-18 00:11:00,55.0,22.0,30.01,North,-999,-999.0,-999.0,27,-99.99,,,-99.99,,2013-05-18 06:11:00,
2013-05-18 00:22:00,55.0,22.0,30.01,North,-999,-999.0,-999.0,27,-99.99,,,-99.99,,2013-05-18 06:22:00,
2013-05-18 00:32:00,55.0,22.0,30.01,North,-999,-999.0,-999.0,27,-99.99,,,-99.99,,2013-05-18 06:32:00,
2013-05-18 00:42:00,50.0,24.0,30.01,North,-999,-999.0,-999.0,35,-99.99,,,-99.99,,2013-05-18 06:42:00,
2013-05-18 00:52:00,50.0,24.0,30.01,North,-999,-999.0,-999.0,35,-99.99,,,-99.99,,2013-05-18 06:52:00,
2013-05-18 01:01:00,50.0,24.0,30.01,North,-999,-999.0,-999.0,35,-99.99,,,-99.99,,2013-05-18 07:01:00,
2013-05-18 01:11:00,50.0,25.0,30.01,North,-999,-999.0,-999.0,37,-99.99,,,-99.99,,2013-05-18 07:11:00,
2013-05-18 01:21:00,50.0,25.0,30.01,North,-999,-999.0,-999.0,37,-99.99,,,-99.99,,2013-05-18 07:21:00,
2013-05-18 01:31:00,50.0,25.0,30.01,North,-999,-999.0,-999.0,37,-99.99,,,-99.99,,2013-05-18 07:31:00,
2013-05-18 01:42:00,49.0,29.0,30.01,North,-999,-999.0,-999.0,47,-99.99,,,-99.99,,2013-05-18 07:42:00,
2013-05-18 01:52:00,49.0,29.0,30.01,North,-999,-999.0,-999.0,47,-99.99,,,-99.99,,2013-05-18 07:52:00,
2013-05-18 02:02:00,49.0,-99.9,30.01,North,-999,-999.0,-999.0,47,-99.99,,,-99.99,,2013-05-18 08:02:00,
2013-05-18 02:11:00,47.0,30.0,30.01,North,-999,-999.0,-999.0,52,-99.99,,,-99.99,,2013-05-18 08:11:00,
2013-05-18 02:21:00,47.0,30.0,30.01,North,-999,-999.0,-999.0,52,-99.99,,,-99.99,,2013-05-18 08:21:00,
2013-05-18 02:32:00,47.0,30.0,30.01,North,-999,-999.0,-999.0,52,-99.99,,,-99.99,,2013-05-18 08:32:00,
2013-05-18 02:42:00,48.0,31.0,30.02,North,-999,-999.0,-999.0,51,-99.99,,,-99.99,,2013-05-18 08:42:00,
2013-05-18 02:52:00,48.0,31.0,30.02,North,-999,-999.0,-999.0,51,-99.99,,,-99.99,,2013-05-18 08:52:00,
2013-05-18 03:02:00,48.0,31.0,30.02,North,-999,-999.0,-999.0,51,-99.99,,,-99.99,,2013-05-18 09:02:00,
2013-05-18 03:11:00,48.0,31.0,30.02,North,-999,-999.0,-999.0,51,-99.99,,,-99.99,,2013-05-18 09:11:00,
2013-05-18 03:22:00,48.0,31.0,30.01,North,-999,-999.0,-999.0,51,-99.99,,,-99.99,,2013-05-18 09:22:00,
2013-05-18 03:32:00,48.0,31.0,30.01,North,-999,-999.0,-999.0,51,-99.99,,,-99.99,,2013-05-18 09:32:00,
2013-05-18 03:43:00,48.0,31.0,30.03,North,-999,-999.0,-999.0,52,-99.99,,,-99.99,,2013-05-18 09:43:00,
2013-05-18 03:53:00,48.0,31.0,30.03,North,-999,-999.0,-999.0,52,-99.99,,,-99.99,,2013-05-18 09:53:00,
2013-05-18 04:03:00,48.0,31.0,30.03,North,-999,-999.0,-999.0,52,-99.99,,,-99.99,,2013-05-18 10:03:00,
2013-05-18 04:12:00,46.0,31.0,30.03,North,-999,-999.0,-999.0,56,-99.99,,,-99.99,,2013-05-18 10:12:00,
2013-05-18 04:22:00,46.0,31.0,30.03,North,-999,-999.0,-999.0,56,-99.99,,,-99.99,,2013-05-18 10:22:00,
2013-05-18 04:33:00,46.0,31.0,30.03,North,-999,-999.0,-999.0,56,-99.99,,,-99.99,,2013-05-18 10:33:00,
2013-05-18 04:42:00,46.0,31.0,30.03,North,-999,-999.0,-999.0,55,-99.99,,,-99.99,,2013-05-18 10:42:00,
2013-05-18 04:52:00,46.0,31.0,30.03,North,-999,-999.0,-999.0,55,-99.99,,,-99.99,,2013-05-18 10:52:00,
2013-05-18 05:03:00,46.0,31.0,30.03,North,-999,-999.0,-999.0,55,-99.99,,,-99.99,,2013-05-18 11:03:00,
2013-05-18 05:12:00,46.0,30.0,30.04,North,-999,-999.0,-999.0,54,-99.99,,,-99.99,,2013-05-18 11:12:00,
2013-05-18 05:22:00,46.0,30.0,30.04,North,-999,-999.0,-999.0,54,-99.99,,,-99.99,,2013-05-18 11:22:00,
2013-05-18 05:33:00,46.0,30.0,30.04,North,-999,-999.0,-999.0,54,-99.99,,,-99.99,,2013-05-18 11:33:00,
2013-05-18 05:42:00,46.0,30.0,30.04,North,-999,-999.0,-999.0,54,-99.99,,,-99.99,,2013-05-18 11:42:00,
2013-05-18 05:52:00,45.0,30.0,30.05,North,-999,-999.0,-999.0,56,-99.99,,,-99.99,,2013-05-18 11:52:00,
2013-05-18 06:02:00,45.0,30.0,30.05,North,-999,-999.0,-999.0,56,-99.99,,,-99.99,,2013-05-18 12:02:00,
2013-05-18 06:12:00,43.0,31.0,30.06,North,-999,-999.0,-999.0,62,-99.99,,,-99.99,,2013-05-18 12:12:00,
2013-05-18 06:23:00,43.0,31.0,30.06,North,-999,-999.0,-999.0,62,-99.99,,,-99.99,,2013-05-18 12:23:00,
2013-05-18 06:33:00,43.0,31.0,30.06,North,-999,-999.0,-999.0,62,-99.99,,,-99.99,,2013-05-18 12:33:00,
2013-05-18 06:42:00,43.0,31.0,30.06,North,-999,-999.0,-999.0,62,-99.99,,,-99.99,,2013-05-18 12:42:00,
2013-05-18 06:52:00,46.0,30.0,30.05,North,-999,-999.0,-999.0,53,-99.99,,,-99.99,,2013-05-18 12:52:00,
2013-05-18 07:01:00,46.0,30.0,30.05,North,-999,-999.0,-999.0,53,-99.99,,,-99.99,,2013-05-18 13:01:00,
2013-05-18 07:11:00,46.0,30.0,30.05,North,-999,-999.0,-999.0,53,-99.99,,,-99.99,,2013-05-18 13:11:00,
2013-05-18 07:21:00,45.0,33.0,30.05,North,-999,-999.0,-999.0,62,-99.99,,,-99.99,,2013-05-18 13:21:00,
2013-05-18 07:33:00,45.0,33.0,30.05,North,-999,-999.0,-999.0,62,-99.99,,,-99.99,,2013-05-18 13:33:00,
2013-05-18 07:43:00,45.0,33.0,30.05,North,-999,-999.0,-999.0,62,-99.99,,,-99.99,,2013-05-18 13:43:00,
2013-05-18 07:52:00,49.0,30.0,30.05,North,-999,-999.0,-999.0,48,-99.99,,,-99.99,,2013-05-18 13:52:00,
2013-05-18 08:03:00,49.0,30.0,30.05,North,-999,-999.0,-999.0,48,-99.99,,,-99.99,,2013-05-18 14:03:00,
2013-05-18 08:12:00,49.0,32.0,30.05,North,-999,-999.0,-999.0,50,-99.99,,,-99.99,,2013-05-18 14:12:00,
2013-05-18 08:22:00,49.0,32.0,30.05,North,-999,-999.0,-999.0,50,-99.99,,,-99.99,,2013-05-18 14:22:00,
2013-05-18 08:32:00,49.0,32.0,30.05,North,-999,-999.0,-999.0,50,-99.99,,,-99.99,,2013-05-18 14:32:00,
2013-05-18 08:42:00,50.0,33.0,30.05,North,-999,-999.0,-999.0,51,-99.99,,,-99.99,,2013-05-18 14:42:00,
2013-05-18 08:54:00,50.0,33.0,30.05,North,-999,-999.0,-999.0,51,-99.99,,,-99.99,,2013-05-18 14:54:00,
2013-05-18 09:03:00,50.0,33.0,30.05,North,-999,-999.0,-999.0,51,-99.99,,,-99.99,,2013-05-18 15:03:00,
2013-05-18 09:13:00,51.0,29.0,30.05,North,-999,-999.0,-999.0,42,-99.99,,,-99.99,,2013-05-18 15:13:00,
2013-05-18 09:23:00,51.0,29.0,30.05,North,-999,-999.0,-999.0,42,-99.99,,,-99.99,,2013-05-18 15:23:00,
2013-05-18 09:33:00,51.0,29.0,30.05,North,-999,-999.0,-999.0,42,-99.99,,,-99.99,,2013-05-18 15:33:00,
2013-05-18 09:43:00,51.0,29.0,30.05,North,-999,-999.0,-999.0,42,-99.99,,,-99.99,,2013-05-18 15:43:00,
2013-05-18 09:53:00,53.0,30.0,30.05,North,-999,-999.0,-999.0,40,-99.99,,,-99.99,,2013-05-18 15:53:00,
2013-05-18 10:03:00,53.0,30.0,30.05,North,-999,-999.0,-999.0,40,-99.99,,,-99.99,,2013-05-18 16:03:00,
2013-05-18 10:13:00,53.0,30.0,30.05,North,-999,-999.0,-999.0,40,-99.99,,,-99.99,,2013-05-18 16:13:00,
2013-05-18 10:22:00,53.0,28.0,30.06,North,-999,-999.0,-999.0,37,-99.99,,,-99.99,,2013-05-18 16:22:00,
2013-05-18 10:33:00,53.0,28.0,30.06,North,-999,-999.0,-999.0,37,-99.99,,,-99.99,,2013-05-18 16:33:00,
2013-05-18 10:42:00,54.0,26.0,30.05,North,-999,-999.0,-999.0,33,-99.99,,,-99.99,,2013-05-18 16:42:00,
2013-05-18 10:52:00,54.0,26.0,30.05,North,-999,-999.0,-999.0,33,-99.99,,,-99.99,,2013-05-18 16:52:00,
2013-05-18 11:02:00,54.0,26.0,30.05,North,-999,-999.0,-999.0,33,-99.99,,,-99.99,,2013-05-18 17:02:00,
2013-05-18 11:12:00,55.0,26.0,30.05,North,-999,-999.0,-999.0,32,-99.99,,,-99.99,,2013-05-18 17:12:00,
2013-05-18 11:22:00,55.0,26.0,30.05,North,-999,-999.0,-999.0,32,-99.99,,,-99.99,,2013-05-18 17:22:00,
2013-05-18 11:32:00,55.0,26.0,30.05,North,-999,-999.0,-999.0,32,-99.99,,,-99.99,,2013-05-18 17:32:00,
2013-05-18 11:42:00,56.0,26.0,30.05,North,-999,-999.0,-999.0,31,-99.99,,,-99.99,,2013-05-18 17:42:00,
2013-05-18 11:51:00,56.0,26.0,30.05,North,-999,-999.0,-999.0,31,-99.99,,,-99.99,,2013-05-18 17:51:00,
2013-05-18 12:01:00,56.0,26.0,30.05,North,-999,-999.0,-999.0,31,-99.99,,,-99.99,,2013-05-18 18:01:00,
2013-05-18 12:12:00,58.0,26.0,30.04,North,-999,-999.0,-999.0,29,-99.99,,,-99.99,,2013-05-18 18:12:00,
2013-05-18 12:21:00,58.0,26.0,30.04,North,-999,-999.0,-999.0,29,-99.99,,,-99.99,,2013-05-18 18:21:00,
2013-05-18 12:32:00,58.0,26.0,30.04,North,-999,-999.0,-999.0,29,-99.99,,,-99.99,,2013-05-18 18:32:00,
2013-05-18 12:42:00,59.0,25.0,30.02,North,-999,-999.0,-999.0,28,-99.99,,,-99.99,,2013-05-18 18:42:00,
2013-05-18 12:52:00,59.0,25.0,30.02,North,-999,-999.0,-999.0,28,-99.99,,,-99.99,,2013-05-18 18:52:00,
2013-05-18 13:02:00,59.0,25.0,30.02,North,-999,-999.0,-999.0,28,-99.99,,,-99.99,,2013-05-18 19:02:00,
2013-05-18 13:12:00,57.0,31.0,30.01,North,-999,-999.0,-999.0,37,-99.99,,,-99.99,,2013-05-18 19:12:00,
2013-05-18 13:22:00,57.0,31.0,30.01,North,-999,-999.0,-999.0,37,-99.99,,,-99.99,,2013-05-18 19:22:00,
2013-05-18 13:32:00,57.0,31.0,30.01,North,-999,-999.0,-999.0,37,-99.99,,,-99.99,,2013-05-18 19:32:00,
2013-05-18 13:42:00,60.0,32.0,30.00,North,-999,-999.0,-999.0,35,-99.99,,,-99.99,,2013-05-18 19:42:00,
2013-05-18 13:52:00,60.0,32.0,30.00,North,-999,-999.0,-999.0,35,-99.99,,,-99.99,,2013-05-18 19:52:00,
2013-05-18 14:01:00,60.0,32.0,30.00,North,-999,-999.0,-999.0,35,-99.99,,,-99.99,,2013-05-18 20:01:00,
2013-05-18 14:11:00,58.0,30.0,30.00,North,-999,-999.0,-999.0,34,-99.99,,,-99.99,,2013-05-18 20:11:00,
2013-05-18 14:22:00,58.0,30.0,30.00,North,-999,-999.0,-999.0,34,-99.99,,,-99.99,,2013-05-18 20:22:00,
2013-05-18 14:32:00,58.0,30.0,30.00,North,-999,-999.0,-999.0,34,-99.99,,,-99.99,,2013-05-18 20:32:00,
2013-05-18 14:42:00,50.0,32.0,30.05,North,-999,-999.0,-999.0,50,-99.99,,,-99.99,,2013-05-18 20:42:00,
2013-05-18 14:52:00,50.0,32.0,30.05,North,-999,-999.0,-999.0,50,-99.99,,,-99.99,,2013-05-18 20:52:00,
2013-05-18 15:44:00,54.0,34.0,30.01,North,-999,-999.0,-999.0,45,-99.99,,,-99.99,,2013-05-18 21:44:00,
2013-05-18 15:53:00,54.0,34.0,30.01,North,-999,-999.0,-999.0,45,-99.99,,,-99.99,,2013-05-18 21:53:00,
2013-05-18 16:03:00,54.0,34.0,30.01,North,-999,-999.0,-999.0,45,-99.99,,,-99.99,,2013-05-18 22:03:00,
2013-05-18 16:12:00,57.0,30.0,30.00,North,-999,-999.0,-999.0,34,-99.99,,,-99.99,,2013-05-18 22:12:00,
2013-05-18 16:23:00,57.0,30.0,30.00,North,-999,-999.0,-999.0,34,-99.99,,,-99.99,,2013-05-18 22:23:00,
2013-05-18 16:33:00,57.0,30.0,30.00,North,-999,-999.0,-999.0,34,-99.99,,,-99.99,,2013-05-18 22:33:00,
2013-05-18 16:42:00,54.0,31.0,30.00,North,-999,-999.0,-999.0,41,-99.99,,,-99.99,,2013-05-18 22:42:00,
2013-05-18 16:52:00,54.0,31.0,30.00,North,-999,-999.0,-999.0,41,-99.99,,,-99.99,,2013-05-18 22:52:00,
2013-05-18 17:01:00,54.0,31.0,30.00,North,-999,-999.0,-999.0,41,-99.99,,,-99.99,,2013-05-18 23:01:00,
2013-05-18 17:12:00,52.0,31.0,30.03,North,-999,-999.0,-999.0,44,-99.99,,,-99.99,,2013-05-18 23:12:00,
2013-05-18 17:22:00,52.0,31.0,30.03,North,-999,-999.0,-999.0,44,-99.99,,,-99.99,,2013-05-18 23:22:00,
2013-05-18 17:32:00,52.0,31.0,30.03,North,-999,-999.0,-999.0,44,-99.99,,,-99.99,,2013-05-18 23:32:00,
2013-05-18 17:41:00,46.0,37.0,30.05,North,-999,-999.0,-999.0,70,-99.99,,,-99.99,,2013-05-18 23:41:00,
2013-05-18 17:52:00,46.0,37.0,30.05,North,-999,-999.0,-999.0,70,-99.99,,,-99.99,,2013-05-18 23:52:00,
2013-05-18 18:11:00,46.0,37.0,30.05,North,-999,-999.0,-999.0,70,-99.99,,,-99.99,,2013-05-19 00:11:00,
2013-05-18 18:21:00,46.0,37.0,30.05,North,-999,-999.0,-999.0,70,-99.99,,,-99.99,,2013-05-19 00:21:00,
2013-05-18 18:42:00,47.0,37.0,30.04,North,-999,-999.0,-999.0,69,-99.99,,,-99.99,,2013-05-19 00:42:00,
2013-05-18 18:52:00,47.0,37.0,30.04,North,-999,-999.0,-999.0,69,-99.99,,,-99.99,,2013-05-19 00:52:00,
2013-05-18 19:01:00,47.0,37.0,30.04,North,-999,-999.0,-999.0,69,-99.99,,,-99.99,,2013-05-19 01:01:00,
2013-05-18 19:11:00,47.0,37.0,30.01,North,-999,-999.0,-999.0,68,-99.99,,,-99.99,,2013-05-19 01:11:00,
2013-05-18 19:21:00,47.0,37.0,30.01,North,-999,-999.0,-999.0,68,-99.99,,,-99.99,,2013-05-19 01:21:00,
2013-05-18 19:32:00,47.0,37.0,30.01,North,-999,-999.0,-999.0,68,-99.99,,,-99.99,,2013-05-19 01:32:00,
2013-05-18 19:42:00,46.0,38.0,29.98,North,-999,-999.0,-999.0,73,-99.99,,,-99.99,,2013-05-19 01:42:00,
2013-05-18 19:52:00,46.0,38.0,29.98,North,-999,-999.0,-999.0,73,-99.99,,,-99.99,,2013-05-19 01:52:00,
2013-05-18 20:01:00,46.0,38.0,29.98,North,-999,-999.0,-999.0,73,-99.99,,,-99.99,,2013-05-19 02:01:00,
2013-05-18 20:11:00,44.0,37.0,29.99,North,-999,-999.0,-999.0,75,-99.99,,,-99.99,,2013-05-19 02:11:00,
2013-05-18 20:21:00,44.0,37.0,29.99,North,-999,-999.0,-999.0,75,-99.99,,,-99.99,,2013-05-19 02:21:00,
2013-05-18 20:32:00,44.0,37.0,29.99,North,-999,-999.0,-999.0,75,-99.99,,,-99.99,,2013-05-19 02:32:00,
2013-05-18 20:42:00,43.0,36.0,29.99,North,-999,-999.0,-999.0,77,-99.99,,,-99.99,,2013-05-19 02:42:00,
2013-05-18 20:52:00,43.0,36.0,29.99,North,-999,-999.0,-999.0,77,-99.99,,,-99.99,,2013-05-19 02:52:00,
2013-05-18 21:01:00,43.0,36.0,29.99,North,-999,-999.0,-999.0,77,-99.99,,,-99.99,,2013-05-19 03:01:00,
2013-05-18 21:11:00,43.0,36.0,30.01,North,-999,-999.0,-999.0,76,-99.99,,,-99.99,,2013-05-19 03:11:00,
2013-05-18 21:21:00,43.0,36.0,30.01,North,-999,-999.0,-999.0,76,-99.99,,,-99.99,,2013-05-19 03:21:00,
2013-05-18 21:33:00,43.0,36.0,30.01,North,-999,-999.0,-999.0,76,-99.99,,,-99.99,,2013-05-19 03:33:00,
2013-05-18 21:43:00,42.0,35.0,30.01,North,-999,-999.0,-999.0,76,-99.99,,,-99.99,,2013-05-19 03:43:00,
2013-05-18 21:53:00,42.0,35.0,30.01,North,-999,-999.0,-999.0,76,-99.99,,,-99.99,,2013-05-19 03:53:00,
2013-05-18 22:02:00,42.0,35.0,30.01,North,-999,-999.0,-999.0,76,-99.99,,,-99.99,,2013-05-19 04:02:00,
2013-05-18 22:12:00,44.0,34.0,30.00,North,-999,-999.0,-999.0,67,-99.99,,,-99.99,,2013-05-19 04:12:00,
2013-05-18 22:23:00,44.0,34.0,30.00,North,-999,-999.0,-999.0,67,-99.99,,,-99.99,,2013-05-19 04:23:00,
2013-05-18 22:33:00,44.0,34.0,30.00,North,-999,-999.0,-999.0,67,-99.99,,,-99.99,,2013-05-19 04:33:00,
2013-05-18 22:42:00,43.0,33.0,30.00,North,-999,-999.0,-999.0,67,-99.99,,,-99.99,,2013-05-19 04:42:00,
2013-05-18 22:52:00,43.0,33.0,30.00,North,-999,-999.0,-999.0,67,-99.99,,,-99.99,,2013-05-19 04:52:00,
2013-05-18 23:02:00,43.0,33.0,30.00,North,-999,-999.0,-999.0,67,-99.99,,,-99.99,,2013-05-19 05:02:00,
2013-05-18 23:12:00,43.0,34.0,30.00,North,-999,-999.0,-999.0,68,-99.99,,,-99.99,,2013-05-19 05:12:00,
2013-05-18 23:22:00,43.0,34.0,30.00,North,-999,-999.0,-999.0,68,-99.99,,,-99.99,,2013-05-19 05:22:00,
2013-05-18 23:32:00,43.0,34.0,30.00,North,-999,-999.0,-999.0,68,-99.99,,,-99.99,,2013-05-19 05:32:00,
2013-05-18 23:42:00,42.0,33.0,29.99,North,-999,-999.0,-999.0,70,-99.99,,,-99.99,,2013-05-19 05:42:00,
2013-05-18 23:51:00,42.0,33.0,29.99,North,-999,-999.0,-999.0,70,-99.99,,,-99.99,,2013-05-19 05:51:00,